Weather History for Truckee-Tahoe, CA

Change the Weather History Date:

Wednesday, October 23, 2013

  Actual Average Record
Temperature  
Mean Temperature 46 °F -  
Max Temperature 68 °F 59 °F 78 °F (1988)
Min Temperature 23 °F 28 °F 10 °F (1961)
Degree Days  
Heating Degree Days 20    
Moisture  
Dew Point 17 °F    
Average Humidity 46    
Maximum Humidity 74    
Minimum Humidity 13    
Precipitation  
Precipitation 0.00 in - - ()
Sea Level Pressure  
Sea Level Pressure 30.18 in    
Wind  
Wind Speed 1 mph (South)    
Max Wind Speed 12 mph    
Max Gust Speed -    
Visibility 7 miles    
Events      
Averages and records for this station are not official NWS values.
T = Trace of Precipitation, MM = Missing Value Source: NWS Daily Summary

Daily Weather History Graph

Daily Weather History Graph

Search for Another Location

Airport:

Trip Planner

Search our weather history database for the weather conditions in past years. The results will help you decide how hot, cold, wet, or windy it might be!

Date:

Astronomy

Oct. 23, 2013 Rise Set
Actual Time 7:19 AM PDT 6:09 PM PDT
Civil Twilight 6:51 AM PDT 6:37 PM PDT
Nautical Twilight 6:20 AM PDT 7:08 PM PDT
Astronomical Twilight 5:49 AM PDT 7:39 PM PDT
Moon 9:46 PM PDT (10/23) 11:39 AM PDT (10/23)
Length of Visible Light 11h 45m
Length of Day
10h 50m
Waning Gibbous, 78% of the Moon is Illuminated
Oct 23
Waning Gibbous
Oct 26
Last Quarter
Nov 3
New
Nov 9
First Quarter
Nov 17
Full

Hourly Weather History & Observations

Time (PDT) Temp. Windchill Dew Point Humidity Pressure Visibility Wind Dir Wind Speed Gust Speed Precip Events Conditions
12:15 AM 32.0 °F - 15.8 °F 51% 30.22 in 1.2 mi Calm Calm - N/A   Haze
12:35 AM 32.0 °F - 14.0 °F 48% 30.22 in 5.0 mi Calm Calm - N/A   Haze
12:55 AM 30.2 °F - 15.8 °F 55% 30.22 in 2.0 mi Calm Calm - N/A   Haze
1:15 AM 28.4 °F - 15.8 °F 59% 30.22 in 1.2 mi Calm Calm - N/A   Haze
1:35 AM 32.0 °F - 15.8 °F 51% 30.22 in 1.5 mi Calm Calm - N/A   Haze
1:55 AM 32.0 °F - 15.8 °F 51% 30.22 in 5.0 mi Calm Calm - N/A   Haze
2:15 AM 28.4 °F - 17.6 °F 64% 30.22 in 1.0 mi Calm Calm - N/A   Haze
2:35 AM 28.4 °F - 15.8 °F 59% 30.22 in 1.2 mi Calm Calm - N/A   Haze
2:55 AM 28.4 °F - 15.8 °F 59% 30.21 in 1.0 mi Calm Calm - N/A   Haze
3:15 AM 28.4 °F - 15.8 °F 59% 30.21 in 8.0 mi Calm Calm - N/A   Clear
3:35 AM 26.6 °F - 15.8 °F 64% 30.21 in 1.0 mi Calm Calm - N/A   Haze
3:55 AM 26.6 °F - 15.8 °F 64% 30.21 in 1.5 mi Calm Calm - N/A   Haze
4:15 AM 26.6 °F - 15.8 °F 64% 30.21 in 1.0 mi Calm Calm - N/A   Haze
4:35 AM 26.6 °F - 15.8 °F 64% 30.21 in 1.5 mi Calm Calm - N/A   Haze
4:55 AM 26.6 °F - 15.8 °F 64% 30.21 in 4.0 mi Calm Calm - N/A   Haze
5:15 AM 26.6 °F - 15.8 °F 64% 30.21 in 2.0 mi Calm Calm - N/A   Haze
5:35 AM 24.8 °F - 15.8 °F 69% 30.21 in 1.0 mi Calm Calm - N/A   Haze
5:55 AM 24.8 °F - 15.8 °F 69% 30.21 in 1.2 mi Calm Calm - N/A   Haze
6:15 AM 26.6 °F - 15.8 °F 64% 30.21 in 1.8 mi Calm Calm - N/A   Haze
6:35 AM 24.8 °F - 15.8 °F 69% 30.21 in 3.0 mi Calm Calm - N/A   Haze
6:50 AM 23.0 °F - 15.8 °F 74% 30.21 in 10.0 mi Calm Calm - N/A   Clear
7:55 AM 24.8 °F - 15.8 °F 69% 30.22 in 10.0 mi Calm Calm - N/A   Clear
8:45 AM 30.2 °F - 15.8 °F 55% 30.23 in 10.0 mi Calm Calm - N/A   Clear
9:55 AM 41.0 °F - 17.6 °F 39% 30.22 in 10.0 mi Calm Calm - N/A   Clear
10:50 AM 48.2 °F - 19.4 °F 32% 30.20 in 10.0 mi Calm Calm - N/A   Clear
11:45 AM 57.2 °F - 19.4 °F 23% 30.19 in 10.0 mi North 3.5 mph - N/A   Clear
12:50 PM 64.4 °F - 21.2 °F 19% 30.16 in 10.0 mi NE 5.8 mph - N/A   Partly Cloudy
1:50 PM 68.0 °F - 17.6 °F 15% 30.13 in 10.0 mi South 5.8 mph - N/A   Partly Cloudy
2:55 PM 68.0 °F - 15.8 °F 13% 30.11 in 10.0 mi SE 11.5 mph - N/A   Partly Cloudy
3:55 PM 68.0 °F - 15.8 °F 13% 30.11 in 10.0 mi SSE 8.1 mph - N/A   Partly Cloudy
5:45 PM 60.8 °F - 15.8 °F 17% 30.11 in 10.0 mi South 4.6 mph - N/A   Partly Cloudy
5:55 PM 59.0 °F - 15.8 °F 19% 30.11 in 10.0 mi South 5.8 mph - N/A   Clear
6:15 PM 59.0 °F - 15.8 °F 19% 30.12 in 10.0 mi Calm Calm - N/A   Clear
6:35 PM 59.0 °F - 17.6 °F 20% 30.12 in 10.0 mi Calm Calm - N/A   Clear
6:55 PM 50.0 °F - 15.8 °F 26% 30.13 in 10.0 mi Calm Calm - N/A   Clear
7:15 PM 48.2 °F - 15.8 °F 27% 30.14 in 10.0 mi Calm Calm - N/A   Clear
7:35 PM 46.4 °F 45.2 °F 15.8 °F 29% 30.14 in 10.0 mi South 3.5 mph - N/A   Clear
7:55 PM 44.6 °F - 15.8 °F 31% 30.14 in 10.0 mi Calm Calm - N/A   Clear
8:15 PM 42.8 °F 41.1 °F 17.6 °F 36% 30.15 in 10.0 mi South 3.5 mph - N/A   Clear
8:35 PM 41.0 °F 39.0 °F 17.6 °F 39% 30.15 in 10.0 mi SW 3.5 mph - N/A   Clear
8:55 PM 39.2 °F - 15.8 °F 39% 30.15 in 10.0 mi Calm Calm - N/A   Clear
9:15 PM 39.2 °F 37.0 °F 17.6 °F 42% 30.16 in 10.0 mi SSW 3.5 mph - N/A   Clear
9:35 PM 37.4 °F - 17.6 °F 45% 30.16 in 10.0 mi Calm Calm - N/A   Clear
9:55 PM 37.4 °F - 17.6 °F 45% 30.17 in 10.0 mi Calm Calm - N/A   Clear
10:15 PM 37.4 °F - 17.6 °F 45% 30.17 in 10.0 mi Calm Calm - N/A   Clear
10:35 PM 35.6 °F - 17.6 °F 48% 30.17 in 10.0 mi Calm Calm - N/A   Clear
10:55 PM 33.8 °F - 17.6 °F 52% 30.17 in 10.0 mi Calm Calm - N/A   Clear
11:15 PM 35.6 °F - 17.6 °F 48% 30.18 in 10.0 mi Calm Calm - N/A   Clear
11:35 PM 33.8 °F - 17.6 °F 52% 30.18 in 10.0 mi Calm Calm - N/A   Clear
11:55 PM 32.0 °F - 17.6 °F 55% 30.18 in 10.0 mi Calm Calm - N/A   Clear